STARLINK-36125, 67036

Orbit data source: Space-Track

STARLINK-36125, 67036 is a payload satellite owned by SpaceX/Seattle (US) in LEO that was launched on Thu, 11 Dec 2025 UTC via an FALCON 9 launch vehicle from the Air Force Eastern Test Range (AFETR). Payload-class satellites include a variety of spacecraft equipped with specific instruments for various scientific and technological missions. These include communications satellites like Starlink; space stations such as the ISS; scientific satellites like the Hubble; Earth observation satellites from companies like Planet Labs, Umbra, and HawkEye 360; GPS; miniature CubeSats for education and research; and military/defense satellites.

Loading next visibility...
Identifier
67036, 2025-294G
Orbit
LEO
Country
Flag of USUS
Related business
Manufacturer
SpaceX/Seattle
Mission
Operational Commercial Communications
Bus & Motor
STARLINK V2MO, Unknown motor
Mass
575 kg wet, ~530 kg dry
Launch date (UTC)
2025-12-11 (6 months ago)
Launch vehicle
FALCON 9
Launch site
Air Force Eastern Test Range (AFETR)
Object type
Payload
Rocket body
Debris
Shape & HBR
Box + 2 Pan, 17.7 m
Radar Cross Section
36.964 m², Large (>1 m²)

Expand to show TLE details & history
Last TLE update: 11 hours ago

TLE from 11 hours ago
0 STARLINK-36125
1 67036U 25294G   26171.37183411  .00013768  00000-0  50865-3 0  9991
2 67036  42.9995 178.1321 0001467 261.9834  98.0851 15.27595209 30500
Epoch: 2026-06-20T08:55Z
TLE epoch observation values (Epoch: 2026-06-20T08:55:26.467Z)
Latitude
-0.00002°
Longitude
135.68439°
Altitude
482.921 km
Speed
7.626 km/s
True Right ascension
11h 52m 31s
True Declination
0° 00' 00"
Sunlit
Object was in daylight at epoch
Visualization orbit readout
Latitude
Unknown
Longitude
Unknown
Altitude
Unknown
Speed
Unknown
Apparent Right ascension
Unknown
Apparent Declination
Unknown
Sunlit
N/A
Visualization observer readout
Local Sidereal Time
07:15:57
Azimuth
Unknown
Elevation
Unknown
Doppler factor
Unknown
Orbital elements
Apogee altitude
485.956 km
Perigee altitude
483.942 km
Semi-major axis
6,863.086 km
Eccentricity
0.00015
Inclination
42.9995°
RAAN
178.1321°
Arg. of periapsis
261.9834°
True anomaly
98.10174°
Mean anomaly
98.0851°
Eccentric anomaly
98.09342°
Mean motion
3.81737 °/min
Orbital period
94.31 mins
BSTAR
0.00050865
Loading maneuver chart data...
Computing Atmospheric mass density...
Loading historical data...
Loading historical data...
Loading historical data...
Loading historical data...
Loading historical data...
Loading historical data...
Loading historical data...

Documentation

Showing up to 5 results
|